星链-35384(STARLINK-35384)

导读

STARLINK-35384是美国太空探索技术公司Starlink星链星座的卫星,于2025年10月7日发射升空。作为星链互联网星座的组网卫星,它承担着为全球提供低延迟、高速率宽带互联网服务的任务,依托低轨运行的优势,助力星链完成全球覆盖组网,进一步强化美国在低轨卫星互联网领域的部署。

基本信息
目录编号:
65884
目录名称:
STARLINK-35384
国际标识:
2025-224C
轨道中心:
EARTH
卫星名称:
星链-35384
卫星全名:
星链-35384(STARLINK-35384)
卫星状态:
在轨 (已飞行332 天)
发射日期:
2025-10-07 UTC
国别 :
美国 (US)
星等 :
--
轨道信息
数据来源 国际轨道数据
星历时间: 2026-09-02T22:00:02+0800
1天前
查看轨道信息
半长轴: 6843.204km
偏心率: 0.0000547
轨道倾角: 53.159°
近地点辐角 348.286°
升交点赤经 269.696°
平近点角 154.017°
近地点: 464.692km
远地点: 465.442km
周期: 93.896分钟
每日圈数: 15.336052
详细信息
固有亮度:
5
最大亮度:
2.5
卫星平台:
Starlink V1.0
覆盖范围:
全球
运营商:
太空探索技术公司
运营商所在国:
美国
制造商(研发单位):
太空探索技术公司
制造商所在国:
美国
使用方式:
暂无
卫星简介
Starlink 计划是 SpaceX 推出的全球卫星互联网项目,通过发射低轨道卫星,为全球尤其是偏远地区提供高速、低延迟的互联网服务。自 2019 年起,Starlink 已部署数千颗卫星,旨在缩小全球数字鸿沟,推动互联网普及。该项目还为军事、航空等行业提供通信支持,带来广泛经济效益。
2D轨道图
3D轨道图
轨道高度分析图
轨道倾角分析图
轨道综合分析图
查看轨道综合分析图
交会数据列表
事件ID 空间交会对象 最接近时刻(TCA) 交会距离 交会风险概率(CRP) 交会风险指数(CRI) 操作
CDM_260831-224206-392606-588421
2026-08-31T
22:42:59+0000
1.337 km
极远距离
7.118249E-6 低风险 0.52
CDM_260901-210406-588406-942422
2026-09-01T
21:04:12+0000
2.394 km
极远距离
1.894738E-6 低风险 0.41
CDM_260902-055006-502406-588421
2026-09-02T
05:50:08+0000
2.745 km
极远距离
1.049923E-6 低风险 0.35